Погода в Киевском

Россия / Республика Северная Осетия — Алания     43°42′21″N   44°38′45″E
темп.,
°C
ветер,
м/с
пор.,
м/с
влажн.,
%
обл.,
%
осадки,
мм/ч
давл.,
гПа
погр.,
м
25 февраля, чт
чт2500:00−12в46760 0.0 1040284
03:00−12в458016 0.0 1038205
06:00−12в467897 0.0 1038267
09:00−11в467599 0.0 1037315
12:00−7в446845 0.0 1035403
15:00−4в346925 0.0 1033405
18:00−6в128333 0.0 103321
21:00−5зюз128155 0.0 103222
26 февраля, пт
пт2600:00−1зюз2377100 0.0 103130
03:00−1з2379100 0.0 103029
06:00−1з3480100 0.0 102952
09:00+2зюз3680100 0.0 1028163
12:00+6зсз51064100 0.0 1026864
15:00+6зсз5971100 0.0 1025924
18:00+3зюз3482100 0.0 102647
21:00+2зюз338093 0.0 102632
27 февраля, сб
сб2700:00+1юз23775 0.0 102424
03:00+1юз11752 0.0 102222
06:00+1зюз337531 0.0 102134
09:00+5ююз126453 0.0 102026
12:00+8вюв226095 0.0 1018150
15:00+10ююв356755 0.0 1016346
18:00+5ююв337732 0.0 101623
21:00+3ююз117619 0.0 101622
28 февраля, вс
вс2800:00+3в117635 0.0 101422
03:00+3ссз488237 0.0 1014187
06:00+2зсз1296100 0.0 101424
09:00+3сз2698100 1.3 1014241
12:00+4з1295100 0.8 1014187
15:00+4з3595100 1.1 1014361
18:00+2з5797100 1.9 1017393
21:00+2юз3595100 2.4 1020130
1 марта, пн
пн100:00+1юз2388100 0.0 102131
03:00+2з4797100 0.0 1022387
06:000з379593 0.0 1024226
09:00+3зсз477189 0.0 1025913
12:00+5зсз456385 0.0 10251192
15:00+6зсз455891 0.0 10251294
18:00+4сз3667100 0.0 1027240
21:000ссв378281 0.0 1029232